TimeCEST,TemperatureF,Dew PointF,Humidity,Sea Level PressureIn,VisibilityMPH,Wind Direction,Wind SpeedMPH,Gust SpeedMPH,PrecipitationIn,Events,Conditions,WindDirDegrees,DateUTC
12:50 AM,59.0,57.2,94,29.98,-9999.0,Variable,1.2,-,N/A,,Clear,0,2013-05-17 22:50:00
1:50 AM,57.2,55.4,94,29.95,-9999.0,Variable,3.5,-,N/A,,Clear,0,2013-05-17 23:50:00
2:50 AM,57.2,55.4,94,29.95,-9999.0,Variable,3.5,-,N/A,,Clear,0,2013-05-18 00:50:00
3:50 AM,57.2,55.4,94,29.95,-9999.0,East,5.8,-,N/A,,Clear,80,2013-05-18 01:50:00
4:50 AM,55.4,53.6,94,29.95,-9999.0,Variable,3.5,-,N/A,,Clear,0,2013-05-18 02:50:00
5:50 AM,53.6,53.6,100,29.98,-9999.0,ESE,4.6,-,N/A,,Clear,110,2013-05-18 03:50:00
6:50 AM,59.0,57.2,94,29.98,-9999.0,East,5.8,-,N/A,,Clear,80,2013-05-18 04:50:00
7:50 AM,68.0,57.2,68,29.98,-9999.0,ENE,11.5,-,N/A,,Clear,60,2013-05-18 05:50:00
8:50 AM,75.2,55.4,50,29.98,-9999.0,East,18.4,-,N/A,,Clear,90,2013-05-18 06:50:00
9:50 AM,78.8,57.2,47,29.98,-9999.0,East,16.1,-,N/A,,Clear,90,2013-05-18 07:50:00
10:50 AM,80.6,55.4,42,29.98,-9999.0,East,20.7,-,N/A,,Clear,90,2013-05-18 08:50:00
11:50 AM,82.4,53.6,37,29.98,-9999.0,East,25.3,-,N/A,,Clear,90,2013-05-18 09:50:00
12:50 PM,82.4,51.8,35,29.98,-9999.0,East,24.2,-,N/A,,Clear,100,2013-05-18 10:50:00
1:50 PM,84.2,51.8,33,29.98,-9999.0,East,24.2,-,N/A,,Clear,100,2013-05-18 11:50:00
2:50 PM,86.0,50.0,29,29.95,-9999.0,East,24.2,-,N/A,,Clear,90,2013-05-18 12:50:00
3:50 PM,82.4,50.0,32,29.95,-9999.0,East,26.5,-,N/A,,Clear,100,2013-05-18 13:50:00
4:50 PM,82.4,50.0,32,29.95,-9999.0,East,25.3,-,N/A,,Clear,80,2013-05-18 14:50:00
5:50 PM,80.6,50.0,34,29.95,-9999.0,East,24.2,-,N/A,,Clear,90,2013-05-18 15:50:00
6:50 PM,77.0,51.8,41,29.92,-9999.0,East,26.5,-,N/A,,Clear,90,2013-05-18 16:50:00
8:50 PM,71.6,59.0,64,29.92,-9999.0,ENE,21.9,-,N/A,,Clear,70,2013-05-18 18:50:00
9:50 PM,71.6,57.2,60,29.92,-9999.0,East,21.9,-,N/A,,Clear,80,2013-05-18 19:50:00
10:50 PM,69.8,59.0,68,29.95,-9999.0,ENE,19.6,-,N/A,,Clear,70,2013-05-18 20:50:00
11:50 PM,68.0,59.0,73,29.92,-9999.0,East,24.2,38.0,N/A,,Clear,80,2013-05-18 21:50:00